Location: Fort Collins
(40.5850°N, 105.0840°W)
Time: 03:56:41
(UTC-06:00)

Cosmos 2297 Rocket - Visible Passes

Search period start: 26 June 2016 00:00
Search period end: 06 July 2016 00:00
Orbit: 840 x 843 km, 71.0° (Epoch: 25 June)

Date Brightness Start Highest point End Pass type
(mag) Time Alt. Az. Time Alt. Az. Time Alt. Az.
26 Jun 2.1 00:07:31 56° SSW 00:08:47 84° WNW 00:14:28 10° NNE visible
26 Jun 4.6 01:50:50 10° WNW 01:53:43 14° NW 01:56:37 10° NNW visible
26 Jun 4.1 22:10:25 12° E 22:10:32 12° E 22:12:21 10° ENE visible
26 Jun 2.1 23:52:10 51° SSW 23:53:42 88° WNW 23:59:23 10° NNE visible
27 Jun 4.6 01:35:31 10° W 01:38:35 15° NW 01:41:40 10° NNW visible
27 Jun 4.1 21:55:00 11° E 21:55:29 11° E 21:56:46 10° E visible
27 Jun 2.1 23:36:45 45° SSW 23:38:37 88° ESE 23:44:18 10° NNE visible
28 Jun 4.6 01:20:12 10° W 01:23:27 15° NW 01:26:43 10° NNW visible
28 Jun 2.1 23:21:13 37° SSW 23:23:32 84° ESE 23:29:13 10° NNE visible
29 Jun 4.6 01:04:54 10° W 01:08:19 16° NW 01:11:45 10° N visible
29 Jun 2.1 23:05:33 30° SSW 23:08:27 80° ESE 23:14:07 10° NNE visible
30 Jun 4.6 00:49:37 10° W 00:53:11 17° NW 00:56:47 10° N visible
30 Jun 2.1 22:49:41 22° SSW 22:53:23 76° ESE 22:59:02 10° NNE visible
01 Jul 4.6 00:34:21 10° W 00:38:03 18° NW 00:41:47 10° N visible
01 Jul 2.1 22:33:35 15° SSW 22:38:18 72° ESE 22:43:57 10° NNE visible
02 Jul 4.6 00:19:04 10° W 00:22:56 18° NW 00:26:48 10° N visible
02 Jul 2.1 22:17:38 10° SSW 22:23:14 68° ESE 22:28:51 10° NNE visible
03 Jul 4.6 00:03:50 10° W 00:07:48 19° NW 00:11:49 10° N visible
03 Jul 2.2 22:02:36 10° S 22:08:09 64° ESE 22:13:45 10° NNE visible
03 Jul 4.6 23:48:35 10° W 23:52:41 20° NW 23:56:49 10° N visible
04 Jul 2.2 21:47:33 10° S 21:53:06 61° ESE 21:58:40 10° NNE visible
04 Jul 4.5 23:33:21 10° W 23:37:34 21° NW 23:41:49 10° N visible
05 Jul 2.3 21:32:31 10° S 21:38:01 57° ESE 21:43:34 10° NNE visible
05 Jul 4.5 23:18:07 10° WSW 23:22:27 22° NW 23:26:48 10° N visible
